Weather History for KBGD - August, 2013

Change the Weather History Date:

Saturday, August 3, 2013

  Actual Average Record
Temperature  
Mean Temperature 86 °F 82 °F  
Max Temperature 96 °F 94 °F 108 °F (2012)
Min Temperature 76 °F 70 °F 56 °F (1974)
Degree Days  
Heating Degree Days 0 0  
Month to date heating degree days 0 0  
Since 1 June heating degree days 0 3  
Since 1 July heating degree days 0 0  
Cooling Degree Days 21 17  
Month to date cooling degree days 64 51  
Year to date cooling degree days 1349 1132  
Since 1 June cooling degree days 1061 935  
Growing Degree Days 36 (Base 50)    
Moisture  
Dew Point 62 °F    
Average Humidity 47    
Maximum Humidity 64    
Minimum Humidity 30    
Precipitation  
Precipitation T in 0.07 in 1.70 in (1957)
Month to date precipitation 0.02 0.23  
Year to date precipitation 8.85 13.07  
Snow  
Snow 0.00 in - 0.00 in (2013)
Month to date snowfall 0.0  
Since 1 June snowfall 0.0  
Since 1 July snowfall 0.0  
Snow Depth 0.00 in    
Sea Level Pressure  
Sea Level Pressure 29.87 in    
Wind  
Wind Speed 7 mph (North)    
Max Wind Speed 18 mph    
Max Gust Speed 23 mph    
Visibility 10 miles    
Events Rain , Thunderstorm    
T = Trace of Precipitation, MM = Missing Value Source: NWS Daily Summary

Daily Weather History Graph

Daily Weather History Graph

Search for Another Location

Airport or City:

Trip Planner

Search our weather history database for the weather conditions in past years. The results will help you decide how hot, cold, wet, or windy it might be!

Date:

Astronomy

Aug. 03, 2013 Rise Set
Actual Time 6:55 AM CDT 8:47 PM CDT
Civil Twilight 6:27 AM CDT 9:15 PM CDT
Nautical Twilight 5:53 AM CDT 9:49 PM CDT
Astronomical Twilight 5:17 AM CDT 10:25 PM CDT
Moon 4:07 AM CDT 6:30 PM CDT
Length of Visible Light 14h 48m
Length of Day
13h 52m
Waning Crescent, 9% of the Moon is Illuminated
Aug 3
Waning Crescent
Aug 6
New
Aug 14
First Quarter
Aug 20
Full
Aug 28
Last Quarter

Hourly Weather History & Observations

Time (CDT) Temp. Heat Index Dew Point Humidity Pressure Visibility Wind Dir Wind Speed Gust Speed Precip Events Conditions
12:51 AM 86.0 °F - 51.1 °F 30% 29.77 in 10.0 mi South 12.7 mph 23.0 mph N/A   Partly Cloudy
1:51 AM 84.0 °F 82.9 °F 55.0 °F 37% 29.79 in 10.0 mi SW 8.1 mph 17.3 mph N/A   Partly Cloudy
2:51 AM 79.0 °F - 54.0 °F 42% 29.81 in 10.0 mi SSW 3.5 mph - N/A   Clear
3:51 AM 81.0 °F 80.7 °F 55.0 °F 41% 29.80 in 10.0 mi South 6.9 mph - N/A   Clear
4:51 AM 80.1 °F 80.1 °F 55.0 °F 42% 29.79 in 10.0 mi South 8.1 mph - N/A   Clear
5:51 AM 80.1 °F 80.1 °F 55.0 °F 42% 29.80 in 10.0 mi SSW 10.4 mph - N/A   Clear
6:51 AM 82.0 °F 81.2 °F 53.1 °F 37% 29.80 in 10.0 mi SW 13.8 mph 23.0 mph N/A   Clear
7:51 AM 79.0 °F - 55.0 °F 44% 29.84 in 10.0 mi WNW 10.4 mph - N/A   Clear
8:51 AM 77.0 °F - 64.0 °F 64% 29.86 in 10.0 mi West 3.5 mph - N/A   Clear
9:51 AM 80.1 °F 81.9 °F 64.9 °F 60% 29.87 in 10.0 mi Variable 3.5 mph - N/A   Clear
10:51 AM 82.0 °F 84.1 °F 66.0 °F 58% 29.89 in 10.0 mi North 3.5 mph - N/A   Clear
11:51 AM 86.0 °F 89.4 °F 68.0 °F 55% 29.89 in 10.0 mi NNW 8.1 mph - N/A   Clear
12:51 PM 87.1 °F 89.9 °F 66.9 °F 51% 29.89 in 10.0 mi NE 4.6 mph - N/A   Clear
1:51 PM 91.0 °F 95.2 °F 68.0 °F 47% 29.88 in 10.0 mi NNE 6.9 mph - N/A   Clear
2:51 PM 93.9 °F 97.0 °F 66.0 °F 40% 29.87 in 10.0 mi North 8.1 mph - N/A   Clear
3:51 PM 95.0 °F 99.5 °F 68.0 °F 41% 29.85 in 10.0 mi NE 11.5 mph - N/A   Clear
4:51 PM 93.0 °F 96.4 °F 66.9 °F 42% 29.83 in 10.0 mi NE 12.7 mph - N/A   Clear
5:37 PM 89.6 °F 92.2 °F 66.2 °F 46% 29.99 in 10.0 mi NE 6.9 mph - 0.00 in Thunderstorm Clear
5:51 PM 90.0 °F 92.8 °F 66.9 °F 46% 29.86 in 10.0 mi North 3.5 mph - 0.00 in Rain , Thunderstorm Light Rain
6:51 PM 84.9 °F 88.8 °F 69.1 °F 59% 29.83 in 10.0 mi ENE 11.5 mph 17.3 mph 0.00 in Rain Light Rain
7:19 PM 82.4 °F 86.3 °F 69.8 °F 66% 30.00 in 10.0 mi NNE 9.2 mph - N/A Thunderstorm Overcast
7:41 PM 82.4 °F 84.6 °F 66.2 °F 58% 30.00 in 10.0 mi North 6.9 mph - N/A   Mostly Cloudy
7:51 PM 84.0 °F 86.3 °F 66.0 °F 55% 29.87 in 10.0 mi NNW 4.6 mph - N/A   Mostly Cloudy
8:51 PM 82.9 °F 83.2 °F 60.1 °F 46% 29.91 in 10.0 mi NE 9.2 mph - N/A   Overcast
9:51 PM 79.0 °F - 64.0 °F 60% 29.95 in 10.0 mi North 6.9 mph - N/A   Clear
10:51 PM 80.1 °F 81.5 °F 63.0 °F 56% 29.94 in 10.0 mi NE 5.8 mph - N/A   Clear
11:51 PM 78.1 °F - 64.0 °F 62% 29.94 in 10.0 mi Calm Calm - N/A   Clear